RH
40 39 32 28 23 20 18 17 17 15 14 11 9 6 6 17 23 47 24 24 46 35 27 20 18 16 14 14 13 13 11 8 8 11 13 13 9 8 8 9 10 9 12 12 12 12 12
35 41 37 31 28 25 24 22 20 18 16 14 12 8 7 5 15 25 43 16 50 38 26 21 18 18 16 15 16 18 15 12 10 12 11 14 14 10 9 10 10 11 13 14 14 14 12
24 32 35 34 30 28 23 19 16 15 11 8 9 9 9 6 6 13 30 35 40 50 25 23 21 20 19 18 20 24 23 21 16 15 14 15 16 12 11 10 10 9 13 13 17 16 13
19 26 29 29 26 23 19 17 15 13 11 10 9 8 6 8 5 6 13 54 33 55 30 25 22 21 20 20 22 25 30 29 25 20 16 15 15 11 10 10 11 11 12 12 14 14 13
19 20 22 22 20 18 17 14 9 7 5 4 4 6 6 5 6 5 6 42 47 51 42 25 24 20 19 20 22 24 25 26 24 19 16 14 13 11 12 12 10 11 10 10 12 12 10
20 22 23 24 20 14 11 9 7 5 4 3 2 2 2 4 4 5 4 10 59 49 55 25 26 21 17 18 20 22 23 21 21 18 15 14 12 11 12 14 11 8 7 8 9 11 13
21 24 30 28 23 18 13 10 8 5 3 2 2 3 2 2 3 3 15 100 52 40 53 35 27 22 18 16 16 17 18 19 18 17 15 12 10 10 12 10 9 9 8 7 8 9 9
22 27 30 28 22 17 17 14 5 3 4 5 4 3 4 3 2 4 60 97 31 59 51 80 24 24 19 16 15 15 16 15 13 12 11 11 11 12 11 11 11 11 11 10 11 13 13
22 29 31 26 21 22 22 6 3 8 24 47 20 4 6 4 3 4 100 100 100 71 47 92 34 24 22 17 17 17 15 15 14 14 14 13 13 14 14 15 16 17 16 17 17 18 16
22 28 27 20 24 29 10 3 6 41 62 96 100 49 6 6 4 8 96 100 96 100 60 59 68 22 23 21 20 20 19 17 17 17 17 18 18 18 18 18 19 18 19 18 17 16 15
22 26 24 24 28 21 3 3 23 52 62 50 90 100 13 7 4 4 76 100 100 100 82 53 81 40 21 23 21 21 21 20 20 21 20 18 19 19 18 20 20 21 20 21 22 23 22
22 25 21 22 25 4 3 4 38 60 70 100 100 85 63 8 4 35 100 100 100 100 78 56 60 61 35 21 21 21 21 21 21 20 20 23 25 27 35 34 32 30 31 31 30 29 25
22 22 16 15 7 2 4 5 52 84 100 100 95 73 69 9 6 100 100 100 100 100 74 64 40 56 58 42 25 22 21 22 28 32 36 39 36 34 33 30 30 28 26 24 22 18 17
21 18 12 9 2 5 11 7 71 76 95 100 100 94 88 10 5 99 100 100 100 81 87 72 49 37 56 60 54 47 42 45 48 46 43 34 24 28 28 26 26 22 18 15 18 18 16
21 17 10 6 2 18 17 11 62 77 96 100 100 100 89 6 5 72 100 100 100 100 100 84 64 34 39 50 55 53 52 49 45 36 25 23 30 30 27 24 22 28 21 30 24 30 45
20 16 8 3 7 15 6 17 59 74 100 100 87 93 15 4 45 100 100 100 100 100 100 89 75 43 32 33 35 34 33 29 24 26 28 32 32 28 20 19 30 34 45 67 96 93 98
20 17 6 3 27 21 6 35 74 97 100 100 90 55 6 4 90 100 100 100 100 100 100 98 79 64 36 32 28 28 30 32 30 25 31 43 39 20 20 32 55 77 88 87 97 100 100
21 17 5 3 53 21 15 64 77 97 100 85 65 85 4 28 78 100 100 100 100 100 100 81 67 74 49 42 36 34 35 29 26 36 42 47 16 24 58 74 84 84 86 91 100 100 100
21 16 5 6 64 49 57 63 98 100 74 80 19 15 13 97 100 90 93 100 100 100 93 71 49 49 66 40 40 38 35 27 34 37 46 16 26 45 61 76 81 77 90 100 89 51 56
21 17 4 12 60 72 62 63 87 61 100 71 74 54 88 98 84 84 100 100 100 82 63 60 38 34 32 36 38 35 27 30 36 48 18 21 70 66 83 87 88 90 100 100 33 26 42
23 18 4 15 34 46 91 58 28 34 35 91 100 97 86 86 94 99 100 100 100 93 72 44 33 23 27 36 37 28 30 37 44 32 18 38 75 74 100 96 93 100 93 87 29 24 26
22 19 6 10 28 25 23 35 73 99 100 100 100 100 99 97 99 100 100 100 100 100 68 50 32 29 39 40 29 34 40 39 48 20 32 61 81 93 100 94 98 92 80 75 74 63 36
22 21 12 6 28 18 50 69 71 96 100 76 80 60 65 80 100 100 100 94 83 80 53 54 57 57 52 38 38 43 60 61 23 28 63 83 91 99 98 98 98 96 84 80 92 96 69
21 22 18 4 29 28 37 68 100 100 96 68 51 66 66 76 98 92 86 78 79 78 67 70 72 64 51 47 44 58 69 35 32 59 82 88 86 86 97 98 96 98 85 82 98 100 99
19 22 20 8 18 41 35 75 78 100 95 76 81 81 93 73 65 57 67 78 80 100 100 94 85 60 56 53 62 82 62 38 57 80 89 83 76 82 90 87 98 98 99 95 95 91 97
18 20 21 12 2 26 40 60 60 80 94 100 84 90 99 89 65 80 72 74 80 93 90 69 61 57 54 66 78 86 52 48 61 83 91 80 61 70 79 89 74 95 98 98 92 88 97
19 18 20 14 2 17 25 39 43 51 85 98 82 76 66 80 77 69 96 98 87 86 100 100 98 94 83 85 88 88 55 55 63 82 83 70 63 61 52 73 85 79 88 98 99 100 98
21 17 19 15 3 8 27 33 44 52 81 84 76 67 72 75 80 76 94 94 84 81 100 100 93 82 82 95 100 88 49 56 56 64 65 62 58 55 58 58 65 71 78 74 82 96 99
22 17 18 16 3 2 41 27 41 51 81 72 80 75 68 70 73 70 73 87 79 74 98 100 97 88 90 97 99 87 58 51 54 48 57 52 45 43 52 50 50 67 73 65 61 65 79
Wind_Speed
42 34 31 32 33 32 33 34 36 35 34 35 35 33 32 30 30 34 36 35 37 36 34 33 34 33 35 36 38 38 40 41 41 43 43 38 37 39 37 34 31 29 25 25 25 26 27
45 41 37 36 36 37 37 38 38 40 42 39 39 38 37 34 34 32 36 33 38 37 35 34 34 33 34 35 37 37 39 40 41 42 42 39 38 39 37 35 31 28 25 25 25 25 26
49 47 45 44 44 43 43 42 40 40 41 42 44 44 43 41 38 37 35 34 38 38 36 35 34 33 35 33 35 37 39 40 41 41 41 39 38 39 36 35 32 30 27 25 24 25 24
49 47 45 44 45 45 46 46 46 47 47 49 51 47 49 46 42 39 40 37 35 39 36 37 35 34 34 32 33 36 38 39 38 37 38 37 37 36 36 34 32 32 29 28 24 24 26
50 48 46 47 50 51 50 50 51 53 58 60 59 58 55 51 49 44 43 40 37 39 37 38 36 33 34 29 29 34 36 36 36 36 36 36 36 35 34 33 32 32 29 28 28 28 27
54 50 49 50 52 53 58 63 67 74 73 72 68 61 59 57 54 50 46 43 44 39 39 36 36 35 34 29 28 29 29 30 32 33 33 33 32 32 32 30 30 30 29 28 28 28 28
59 54 52 54 54 57 63 69 76 80 73 64 56 55 49 56 58 57 46 38 48 44 38 33 37 36 33 31 29 28 26 26 27 28 28 29 29 28 28 28 27 26 27 29 29 30 32
62 57 57 57 60 66 73 79 76 64 57 50 45 41 44 50 62 61 49 48 45 38 40 39 39 39 35 34 31 28 26 24 24 24 25 26 26 25 25 25 26 27 29 32 35 37 40
65 61 61 63 68 76 83 77 58 46 32 24 22 25 35 48 60 60 54 52 44 43 41 43 38 39 37 35 32 28 26 25 25 25 25 25 24 24 25 26 27 30 34 37 41 44 48
69 66 65 69 76 83 82 61 41 29 19 19 25 22 29 44 50 62 64 44 44 36 44 44 40 39 38 36 34 31 28 26 25 25 25 25 25 26 27 29 33 36 39 44 48 52 54
72 70 71 77 83 90 69 47 27 17 20 17 24 36 21 38 42 55 57 50 40 35 44 42 45 38 37 37 33 32 30 28 27 26 26 27 27 28 31 34 37 39 44 48 51 55 58
74 74 76 83 90 81 54 39 21 14 16 20 26 20 18 34 41 62 54 38 44 37 44 39 43 40 34 34 34 32 30 29 27 25 25 26 27 30 34 37 41 45 47 49 52 56 62
77 76 82 90 94 65 45 28 10 13 17 28 22 19 12 32 54 72 49 42 42 39 38 40 36 40 35 31 31 30 28 25 25 25 26 27 29 32 32 36 39 42 45 50 54 55 58
79 79 87 95 85 53 41 20 6 11 18 16 23 16 10 33 62 67 47 41 45 44 39 34 34 36 37 34 31 29 26 25 26 27 28 29 27 26 29 32 35 39 40 39 40 44 44
80 80 89 97 71 48 39 5 3 9 16 24 17 13 16 40 64 64 51 39 41 39 33 28 33 30 30 34 31 28 27 28 28 27 27 25 22 23 24 27 29 33 33 39 46 49 52
81 81 90 94 59 44 32 3 5 6 10 26 16 2 27 47 76 61 37 32 35 34 29 28 28 29 25 26 26 27 27 25 25 24 22 21 22 19 22 26 32 35 38 39 44 50 51
80 81 90 87 51 44 21 11 6 7 13 14 5 8 34 58 74 49 41 38 37 33 29 26 27 30 29 25 25 23 23 23 22 20 21 19 19 18 20 28 34 37 37 40 42 50 51
78 79 87 78 50 39 16 14 9 12 10 15 4 16 44 67 50 49 47 38 31 29 24 23 25 33 31 26 26 25 22 19 19 19 15 16 17 16 22 27 28 33 34 37 39 43 39
74 77 83 67 47 28 18 10 11 11 10 8 16 33 50 51 50 51 46 34 27 25 22 21 28 30 34 32 30 24 19 19 19 15 14 14 13 21 20 24 27 28 24 30 37 39 40
71 74 78 59 43 25 21 13 11 9 14 20 28 48 52 40 37 45 38 30 29 24 22 27 32 34 33 31 26 20 19 20 16 15 14 14 16 17 15 14 21 23 24 25 29 31 30
69 69 72 54 41 24 26 22 19 24 31 34 31 37 37 35 25 28 31 25 19 18 22 26 32 33 32 27 23 19 20 16 16 16 14 12 16 13 16 17 19 25 28 24 25 26 26
67 67 67 49 34 22 17 29 31 32 26 23 20 33 31 24 25 28 27 19 18 17 20 26 31 29 23 19 19 19 17 15 15 15 10 11 11 10 9 14 14 15 15 17 19 19 24
65 63 64 47 24 13 28 25 25 23 17 18 32 27 30 29 29 28 23 17 13 16 20 24 23 19 19 18 19 16 14 16 15 10 8 6 1 2 6 8 11 11 14 16 22 20 15
62 60 59 53 12 16 18 19 19 20 19 18 22 26 21 24 23 19 18 17 16 18 18 16 15 17 18 19 17 15 15 16 13 8 6 3 3 4 6 9 12 11 12 12 17 19 11
60 60 56 56 14 9 12 12 15 15 14 13 15 24 18 23 18 17 15 17 20 19 17 15 15 17 19 16 16 14 17 16 13 10 9 6 2 2 9 12 12 12 16 15 13 14 14
58 59 56 55 41 11 17 15 7 14 12 14 14 16 22 21 14 18 19 21 19 20 18 15 13 13 14 13 16 18 18 16 15 14 12 6 3 3 7 9 11 13 13 19 20 18 15
56 59 58 55 50 12 31 26 19 12 6 10 15 15 16 17 15 19 15 15 18 19 17 12 10 10 11 13 17 19 20 19 17 14 12 6 4 5 7 12 13 10 11 11 10 16 15
56 59 59 57 54 13 28 35 28 19 13 8 10 14 15 15 17 21 14 15 19 21 18 9 7 7 13 13 14 19 23 20 18 14 11 8 4 2 5 7 9 11 10 8 7 8 9
54 58 59 57 55 18 30 38 33 23 21 15 11 11 13 13 15 16 15 13 20 19 17 8 5 4 15 13 8 17 22 22 19 15 13 11 8 3 1 5 7 6 7 8 7 4 4
Wind_Direction
325 321 316 312 310 307 302 299 297 292 291 288 284 275 267 261 264 259 254 248 240 243 241 241 240 239 241 238 235 231 232 233 234 235 233 232 232 234 234 235 237 240 240 241 239 236 236
323 317 314 312 310 305 300 295 291 289 286 283 280 274 271 263 258 261 255 254 243 242 238 236 236 235 239 237 234 231 229 230 231 232 233 232 230 231 231 232 234 239 236 237 237 237 236
327 319 317 316 313 309 304 298 292 284 280 279 276 273 268 265 257 252 258 249 243 240 237 233 232 232 236 236 233 228 225 225 227 226 228 228 227 227 228 229 233 237 240 241 241 240 239
330 322 318 316 311 308 302 298 296 291 284 278 274 270 265 259 251 248 248 242 246 237 236 231 230 230 234 232 231 228 223 222 224 224 226 226 227 225 226 228 231 235 239 242 244 242 242
334 327 322 319 316 311 307 304 299 295 290 283 273 266 260 253 246 240 239 239 239 233 233 229 226 227 229 228 228 225 221 221 221 221 223 224 226 225 226 227 229 234 238 240 240 243 247
335 330 325 321 319 316 314 312 309 306 300 296 287 270 254 246 238 231 231 231 233 230 230 227 225 224 225 224 223 222 218 217 218 219 219 222 224 226 227 228 229 232 238 244 250 252 251
336 331 325 324 320 317 314 311 310 308 302 294 282 269 254 236 226 220 218 223 230 226 227 228 224 223 220 220 220 216 210 211 215 216 217 218 220 224 229 232 236 241 246 252 254 257 256
338 332 329 325 322 319 319 317 316 309 304 297 287 265 246 226 217 211 199 213 226 224 221 219 221 217 217 216 218 217 212 211 214 214 215 218 223 229 236 240 245 249 252 255 256 258 261
339 335 330 327 324 325 326 324 317 312 315 326 307 262 230 219 214 202 187 202 214 223 222 219 218 216 215 216 216 218 218 216 218 220 224 227 229 239 244 249 255 261 264 267 268 268 269
340 336 332 329 327 328 330 326 314 314 315 7 1 331 226 211 212 195 187 200 212 219 221 215 214 216 212 215 216 218 222 223 224 228 233 238 243 249 256 265 268 270 271 272 273 273 272
341 336 333 330 331 334 329 326 317 322 310 319 344 337 258 206 204 193 184 189 195 211 218 215 213 213 212 215 216 219 223 226 229 235 242 248 255 262 268 270 273 275 273 273 274 275 273
342 337 335 333 335 338 330 326 328 327 316 317 324 285 265 203 188 178 172 181 188 209 217 215 213 214 211 214 216 220 222 228 234 239 245 253 261 267 270 273 275 277 281 281 279 278 276
343 340 337 337 340 339 331 328 320 309 312 320 336 320 242 200 178 176 171 180 191 203 209 213 211 212 212 212 215 219 222 226 234 244 249 257 264 269 278 283 283 283 282 282 281 281 280
344 342 340 340 344 340 333 335 279 311 309 340 332 326 218 182 181 184 170 173 189 196 206 211 211 210 212 214 216 220 225 231 238 245 252 258 264 275 273 276 283 286 285 286 289 290 289
346 343 343 343 347 342 338 340 133 310 328 340 324 312 177 176 174 173 168 171 184 196 197 202 207 208 210 216 219 222 228 233 239 245 252 260 266 266 270 287 296 292 285 283 288 289 288
347 345 346 346 349 345 343 152 137 316 327 346 349 243 165 172 168 167 170 172 185 186 195 198 197 203 203 204 208 215 220 227 234 243 255 262 268 276 283 287 296 295 293 296 297 294 292
349 346 349 350 351 352 354 126 89 2 354 0 34 163 165 171 171 163 171 181 181 190 186 193 196 200 205 203 202 215 221 224 236 248 254 275 282 287 288 286 293 294 298 298 295 294 298
351 349 351 353 351 4 30 109 53 23 15 346 137 155 161 164 164 163 168 183 175 188 194 198 197 202 209 211 216 221 234 241 241 250 272 279 273 286 289 291 290 292 297 292 294 299 304
353 351 354 356 354 13 50 80 27 8 57 94 138 156 157 151 166 162 168 178 178 188 199 200 200 202 208 217 224 231 237 243 249 263 272 257 289 291 290 287 285 291 294 294 306 301 294
354 354 356 359 357 11 25 23 17 89 93 129 130 153 154 152 144 163 164 166 176 186 191 196 197 203 208 215 221 228 237 247 258 267 236 264 288 292 289 290 290 296 298 301 315 317 317
354 355 359 1 2 10 1 25 78 98 122 126 103 149 148 142 146 162 168 168 190 191 197 195 195 202 209 219 225 225 232 249 260 237 243 266 287 282 298 309 304 299 299 299 311 320 320
353 355 2 3 7 29 70 102 99 95 73 76 121 136 147 157 160 165 161 166 179 193 191 191 196 201 204 206 211 222 240 248 244 224 243 270 271 288 301 307 310 313 308 301 307 310 312
352 356 1 6 14 91 121 113 81 81 86 117 137 151 155 156 162 167 167 187 198 195 189 188 192 189 186 197 210 223 237 239 220 228 249 238 41 356 342 343 358 342 332 325 313 322 292
350 355 359 7 30 132 139 135 85 85 101 147 149 139 155 159 153 166 185 201 194 182 177 182 179 184 190 203 213 221 236 215 206 209 220 196 88 37 30 27 43 28 5 6 344 358 329
348 353 356 2 8 135 168 149 97 87 101 116 135 170 149 141 160 148 158 168 168 166 166 169 179 188 197 207 206 222 220 200 192 191 188 186 159 20 35 31 55 50 51 40 34 40 48
346 349 352 355 357 233 207 192 165 132 115 132 138 151 156 166 158 176 160 157 162 171 168 167 166 183 201 209 207 217 208 193 194 193 196 201 188 32 29 41 41 40 61 61 60 56 59
343 347 349 350 352 243 211 207 204 224 224 137 135 151 171 176 177 167 176 179 170 167 158 155 163 174 194 194 210 211 204 197 198 196 194 200 151 59 27 10 10 27 33 53 59 55 66
341 344 347 348 350 266 210 214 220 211 195 178 156 148 164 179 182 189 180 172 177 180 174 160 167 181 194 201 195 202 201 198 202 195 196 195 204 110 48 15 355 346 352 2 23 47 74
339 343 345 347 350 319 205 211 211 206 187 176 154 167 175 168 172 183 190 189 184 190 198 169 170 218 203 204 198 200 204 203 210 208 206 218 221 200 313 342 352 347 316 325 336 345 335